| time (UTC) | temp C | wind direction | speed KPH | gust KPH | rain 1hr cm | rain 24hr cm | rain mn cm | humidity % | barometer mb |
| 20260505153055 | 17 | 294 | 9.7 | 17.7 | 0.00 | 0.00 | 0.00 | 58 | 1009.7 |
| 20260505151548 | 16 | 277 | 8.0 | 12.9 | 0.00 | 0.00 | 0.00 | 61 | 1009.5 |
| 20260505124514 | -17 | 0.0 | 0.0 | 0.00 | 0.00 | 0.00 | 1008.2 | ||
| 20260505123009 | -17 | 0.0 | 0.0 | 0.00 | 0.00 | 0.00 | 1008.2 | ||
| 20260505121507 | 12 | 240 | 9.7 | 14.5 | 0.00 | 0.00 | 0.00 | 68 | 1008.1 |
| 20260505120003 | 13 | 245 | 11.3 | 17.7 | 0.00 | 0.00 | 0.00 | 67 | 1007.9 |
| 20260505114602 | 13 | 255 | 12.9 | 20.9 | 0.00 | 0.00 | 0.00 | 67 | 1007.8 |
| 20260505113101 | 13 | 252 | 14.5 | 20.9 | 0.00 | 0.00 | 0.00 | 67 | 1007.7 |
| 20260505111602 | 13 | 243 | 12.9 | 19.3 | 0.00 | 0.00 | 0.00 | 66 | 1007.8 |
| 20260505110111 | 14 | 256 | 16.1 | 20.9 | 0.00 | 0.00 | 0.00 | 65 | 1007.6 |
| 20260505101551 | 15 | 252 | 14.5 | 19.3 | 0.00 | 0.00 | 0.00 | 62 | 1007.6 |
| 20260505100050 | 15 | 256 | 12.9 | 20.9 | 0.00 | 0.00 | 0.00 | 63 | 1007.4 |
| 20260505094548 | 15 | 250 | 14.5 | 22.5 | 0.00 | 0.00 | 0.00 | 62 | 1007.1 |
| 20260505093049 | 15 | 249 | 16.1 | 24.1 | 0.00 | 0.00 | 0.00 | 63 | 1007.1 |
| 20260505091553 | 15 | 259 | 14.5 | 20.9 | 0.00 | 0.00 | 0.00 | 64 | 1007.2 |
| 20260505090046 | 15 | 231 | 14.5 | 17.7 | 0.00 | 0.00 | 0.00 | 64 | 1007.2 |
| 20260505084553 | 14 | 251 | 14.5 | 19.3 | 0.00 | 0.00 | 0.00 | 65 | 1007.2 |
| 20260505083055 | 15 | 233 | 14.5 | 19.3 | 0.00 | 0.00 | 0.00 | 64 | 1007.1 |
| 20260505081543 | 14 | 250 | 12.9 | 19.3 | 0.00 | 0.00 | 0.00 | 65 | 1007.2 |
| 20260505080044 | 14 | 236 | 11.3 | 16.1 | 0.00 | 0.00 | 0.00 | 64 | 1007.2 |
| 20260505074539 | 15 | 225 | 14.5 | 16.1 | 0.00 | 0.00 | 0.00 | 62 | 1007.0 |
| 20260505073037 | 15 | 224 | 9.7 | 16.1 | 0.00 | 0.00 | 0.00 | 62 | 1007.1 |
| 20260505071535 | 15 | 236 | 9.7 | 17.7 | 0.00 | 0.00 | 0.00 | 62 | 1007.1 |
| 20260505070032 | 15 | 207 | 9.7 | 17.7 | 0.00 | 0.00 | 0.00 | 63 | 1006.8 |
| 20260505064537 | 15 | 201 | 11.3 | 17.7 | 0.00 | 0.00 | 0.00 | 61 | 1006.8 |
| 20260505063031 | 14 | 181 | 11.3 | 14.5 | 0.00 | 0.00 | 0.00 | 64 | 1006.9 |
| 20260505061530 | 14 | 246 | 1.6 | 6.4 | 0.00 | 0.00 | 0.00 | 66 | 1006.9 |
| 20260505060029 | 15 | 226 | 9.7 | 12.9 | 0.00 | 0.00 | 0.00 | 64 | 1006.8 |
| 20260505054543 | 15 | 197 | 3.2 | 12.9 | 0.00 | 0.00 | 0.00 | 62 | 1006.7 |
| 20260505053026 | 16 | 204 | 9.7 | 12.9 | 0.00 | 0.00 | 0.00 | 59 | 1006.7 |
| 20260505051524 | 16 | 208 | 6.4 | 11.3 | 0.00 | 0.00 | 0.00 | 56 | 1006.7 |
| 20260505041520 | 17 | 276 | 9.7 | 14.5 | 0.00 | 0.00 | 0.00 | 52 | 1006.1 |
| 20260505040021 | 17 | 273 | 11.3 | 14.5 | 0.00 | 0.00 | 0.00 | 51 | 1005.9 |
| 20260505034525 | 17 | 270 | 9.7 | 12.9 | 0.00 | 0.00 | 0.00 | 49 | 1005.8 |
| 20260505033018 | 18 | 284 | 9.7 | 14.5 | 0.00 | 0.00 | 0.00 | 45 | 1005.7 |
| 20260505031517 | 19 | 282 | 8.0 | 12.9 | 0.00 | 0.00 | 0.00 | 40 | 1005.5 |
| 20260505030036 | 20 | 259 | 3.2 | 3.2 | 0.00 | 0.00 | 0.00 | 38 | 1005.2 |
| 20260505024517 | 21 | 256 | 1.6 | 3.2 | 0.00 | 0.00 | 0.00 | 35 | 1005.2 |
| 20260505023014 | 22 | 356 | 3.2 | 4.8 | 0.00 | 0.00 | 0.00 | 32 | 1005.2 |
| 20260505021518 | 23 | 35 | 3.2 | 6.4 | 0.00 | 0.00 | 0.00 | 30 | 1005.2 |
| 20260505020013 | 23 | 44 | 4.8 | 9.7 | 0.00 | 0.00 | 0.00 | 28 | 1005.3 |
| 20260505014519 | 24 | 30 | 6.4 | 12.9 | 0.00 | 0.00 | 0.00 | 26 | 1005.4 |
| 20260505013018 | 24 | 46 | 8.0 | 14.5 | 0.00 | 0.00 | 0.00 | 26 | 1005.5 |
| 20260505011509 | 24 | 56 | 9.7 | 14.5 | 0.00 | 0.00 | 0.00 | 25 | 1005.5 |
| 20260505010008 | 24 | 41 | 6.4 | 12.9 | 0.00 | 0.00 | 0.00 | 24 | 1005.7 |
| 20260505004520 | 25 | 3 | 9.7 | 17.7 | 0.00 | 0.00 | 0.00 | 24 | 1005.8 |
| 20260505003006 | 25 | 18 | 12.9 | 19.3 | 0.00 | 0.00 | 0.00 | 23 | 1005.8 |
| 20260505001505 | 25 | 27 | 11.3 | 16.1 | 0.00 | 0.00 | 0.00 | 24 | 1005.8 |
| 20260505000004 | 25 | 20 | 11.3 | 17.7 | 0.00 | 0.00 | 0.00 | 24 | 1005.9 |
| 20260504234505 | 25 | 5 | 8.0 | 17.7 | 0.00 | 0.00 | 0.00 | 23 | 1006.0 |
| 20260504233002 | 25 | 37 | 8.0 | 17.7 | 0.00 | 0.00 | 0.00 | 24 | 1006.1 |
| 20260504231626 | 25 | 328 | 11.3 | 19.3 | 0.00 | 0.00 | 0.00 | 25 | 1006.2 |
| 20260504230100 | 25 | 1 | 11.3 | 19.3 | 0.00 | 0.00 | 0.00 | 26 | 1006.2 |
| 20260504224613 | 25 | 16 | 11.3 | 19.3 | 0.00 | 0.00 | 0.00 | 24 | 1006.3 |
| 20260504223057 | 25 | 46 | 16.1 | 22.5 | 0.00 | 0.00 | 0.00 | 25 | 1006.4 |
| 20260504221644 | 25 | 54 | 11.3 | 19.3 | 0.00 | 0.00 | 0.00 | 26 | 1006.5 |
| 20260504220054 | 25 | 349 | 14.5 | 22.5 | 0.00 | 0.00 | 0.00 | 26 | 1006.7 |
| 20260504214552 | 24 | 15 | 16.1 | 22.5 | 0.00 | 0.00 | 0.00 | 26 | 1006.8 |
| 20260504213057 | 25 | 48 | 12.9 | 22.5 | 0.00 | 0.00 | 0.00 | 25 | 1006.8 |
| 20260504211550 | 25 | 343 | 9.7 | 17.7 | 0.00 | 0.00 | 0.00 | 27 | 1006.8 |
| 20260504210051 | 24 | 49 | 9.7 | 20.9 | 0.00 | 0.00 | 0.00 | 24 | 1007.0 |
| 20260504204546 | 24 | 93 | 4.8 | 17.7 | 0.00 | 0.00 | 0.00 | 29 | 1007.1 |
| 20260504203046 | 24 | 335 | 8.0 | 16.1 | 0.00 | 0.00 | 0.00 | 29 | 1007.1 |
| 20260504201544 | 24 | 332 | 8.0 | 17.7 | 0.00 | 0.00 | 0.00 | 30 | 1007.3 |
| 20260504200042 | 23 | 333 | 6.4 | 16.1 | 0.00 | 0.00 | 0.00 | 30 | 1007.3 |
| 20260504194549 | 23 | 26 | 8.0 | 17.7 | 0.00 | 0.00 | 0.00 | 31 | 1007.5 |
| 20260504193045 | 23 | 47 | 8.0 | 19.3 | 0.00 | 0.00 | 0.00 | 31 | 1007.6 |
| 20260504191604 | 23 | 347 | 14.5 | 22.5 | 0.00 | 0.00 | 0.00 | 32 | 1007.7 |
| 20260504190040 | 23 | 15 | 6.4 | 20.9 | 0.00 | 0.00 | 0.00 | 32 | 1007.8 |
| 20260504184544 | 23 | 318 | 9.7 | 20.9 | 0.00 | 0.00 | 0.00 | 32 | 1007.8 |
| 20260504183035 | 23 | 323 | 8.0 | 24.1 | 0.00 | 0.00 | 0.00 | 33 | 1007.9 |
| 20260504181534 | 22 | 323 | 8.0 | 19.3 | 0.00 | 0.00 | 0.00 | 32 | 1007.9 |
| 20260504180036 | 22 | 338 | 8.0 | 14.5 | 0.00 | 0.00 | 0.00 | 32 | 1007.9 |
| 20260504174531 | 22 | 333 | 9.7 | 16.1 | 0.00 | 0.00 | 0.00 | 32 | 1008.0 |
| 20260504173028 | 22 | 333 | 3.2 | 16.1 | 0.00 | 0.00 | 0.00 | 33 | 1008.1 |
| 20260504171528 | 22 | 335 | 9.7 | 14.5 | 0.00 | 0.00 | 0.00 | 34 | 1008.1 |